{"data":{"norad_id":56745,"intl_designator":"2023-072C","name":"SNIPE 2","alt_names":[],"object_type":"PAYLOAD","status":"ACTIVE","operator":null,"country":"SKOR","launch_date":"2023-05-25","launch_site_code":"NSC","launch_vehicle":null,"mission":null,"orbit_class":"UNKNOWN","rcs_meters":null,"size_class":null,"mass_kg":null,"dimensions":null,"purposes":[],"wikipedia_slug":null,"has_3d_model":false,"image_url":null,"decayed_at":null,"tle_current":{"epoch":"2026-05-25T05:14:05.638848Z","epoch_age_seconds":70396,"freshness":"FRESH","line1":"1 56745U 23072C   26145.21812082  .00026371  00000+0  54957-3 0  9994","line2":"2 56745  97.5277 353.3991 0006214  85.3028 274.8930 15.45541691166690","mean_motion":15.45541691,"eccentricity":0.0006214,"inclination_deg":97.5277,"raan_deg":353.3991,"arg_perigee_deg":85.3028,"mean_anomaly_deg":274.893,"bstar":0.00054957,"rev_number":16669,"period_min":93.171216822258,"perigee_km":425.55644134266,"apogee_km":434.01732914725,"semimajor_km":6807.923885245,"source":"CELESTRAK","updated_at":"2026-05-25T13:37:59.660797Z"}}}